RH
83 78 85 92 88 79 73 66 63 64 63 60 58 58 59 55 50 48 46 46 46 45 47 48 46 45 43 41 39 35 31 26 23 21 19 17 16 15 14 13 13 13 12 12 12 12 13 13 14 14 14 14 15 14 15 15 14 14 15 14 14 14 14 13 14 14 13 13 14 14 14 14 14 13 13 12 11 11 11 10 10 9 8 7 7
96 91 93 98 92 83 81 79 74 70 66 65 63 58 59 60 56 53 51 47 45 45 48 51 50 49 48 46 44 41 38 33 29 25 22 21 20 19 18 17 16 16 15 15 14 14 15 15 15 16 16 16 16 15 15 15 15 15 14 14 14 13 13 13 12 13 13 12 12 13 13 13 13 13 13 12 12 12 12 11 11 11 11 10 10
98 99 97 96 85 74 83 93 91 87 81 76 74 67 64 63 60 58 57 52 49 48 47 46 48 50 50 48 46 45 42 37 33 30 26 25 24 23 23 22 21 20 19 19 19 17 18 18 17 18 19 18 18 18 17 17 16 16 15 15 15 14 14 14 13 14 13 12 12 12 11 11 12 12 12 12 12 11 11 11 11 11 11 11 10
79 79 81 88 83 74 87 99 98 98 92 83 85 88 81 71 64 63 62 58 56 56 52 49 51 56 56 51 48 49 48 43 37 34 31 30 30 29 28 28 28 28 26 24 24 23 22 22 22 22 22 22 22 21 21 20 20 20 19 18 17 16 16 15 14 14 14 14 13 12 13 12 11 11 11 11 11 11 11 10 10 11 10 10 11
81 78 75 83 83 74 81 95 99 100 92 83 89 97 93 85 76 70 67 65 63 62 61 60 58 61 61 55 50 51 53 52 48 44 39 37 38 36 34 33 30 29 29 28 27 27 27 27 26 26 25 24 24 24 23 23 23 23 23 23 23 22 21 20 18 16 14 14 13 13 12 12 12 12 12 11 10 10 11 10 10 10 9 9 9
62 71 70 72 73 68 75 91 97 98 93 88 86 86 88 92 89 80 76 78 78 72 69 68 65 64 65 62 57 52 52 55 56 54 50 45 44 41 40 40 37 34 31 27 26 26 27 27 27 27 26 25 24 24 24 23 22 22 23 24 26 26 24 22 21 20 19 17 15 14 12 11 11 10 10 10 10 10 10 10 10 10 9 9 9
34 39 40 40 44 52 67 80 86 89 90 86 81 77 76 82 87 86 81 82 86 83 79 75 68 61 59 60 60 55 53 58 62 62 63 65 65 60 50 44 43 41 37 33 31 31 30 29 28 27 25 23 22 21 21 22 22 22 22 22 23 23 23 21 19 16 16 15 14 14 14 13 12 10 9 8 8 8 8 8 8 8 8 8 8
33 31 30 28 27 29 36 44 52 62 70 74 76 77 75 72 77 84 84 82 83 84 84 80 70 61 57 54 56 59 59 58 58 59 63 69 75 79 75 68 60 54 50 45 39 36 38 40 40 37 33 32 30 27 22 20 20 20 19 19 20 20 21 22 21 17 14 12 11 10 10 10 10 11 10 9 7 7 7 7 7 7 7 7 7
36 35 34 32 30 28 27 28 33 42 54 66 74 81 83 81 78 77 78 78 77 75 75 69 58 56 60 60 61 64 62 56 54 55 55 52 53 61 71 78 79 74 69 67 64 60 57 55 51 46 40 38 37 35 30 25 24 24 22 18 16 17 18 18 18 18 16 13 11 9 9 8 8 9 10 10 10 8 7 6 5 5 6 5 5
34 36 36 35 34 31 29 29 31 34 40 47 54 63 72 79 82 79 75 73 69 64 60 54 47 48 57 65 67 62 58 59 59 59 62 60 50 43 43 48 53 55 51 50 53 54 49 44 41 39 35 32 31 30 28 26 24 26 31 30 22 17 18 19 18 17 15 12 9 8 8 7 7 8 8 8 9 9 9 8 6 5 5 5 5
28 30 32 35 37 36 34 32 31 29 29 28 30 35 39 47 62 71 72 67 60 53 48 44 47 50 55 62 63 54 56 69 72 69 78 83 73 62 59 55 53 54 51 43 35 32 29 27 26 27 26 26 26 25 24 24 21 20 28 39 40 33 29 29 30 29 25 19 14 10 10 10 10 10 9 8 8 8 9 9 8 6 4 5 5
36 37 35 32 32 34 34 35 35 33 32 31 29 29 28 29 35 42 45 44 40 38 35 34 37 40 43 50 53 50 55 65 69 71 77 78 72 68 67 62 55 52 49 43 34 28 26 23 21 21 20 19 20 20 20 20 20 18 19 30 42 41 32 28 28 30 31 27 19 13 11 11 11 10 9 8 8 7 7 9 10 10 7 5 5
50 67 70 60 50 45 39 37 38 37 36 36 33 31 30 29 28 27 28 26 24 23 24 26 26 25 27 31 35 45 54 53 50 53 54 51 48 47 44 41 35 29 25 25 23 21 21 20 19 18 17 16 15 15 16 16 17 17 16 18 24 25 23 23 25 27 29 26 20 15 12 12 11 9 8 7 7 6 6 6 8 11 11 8 6
51 79 97 94 87 81 70 60 56 56 58 58 51 43 38 34 31 29 27 25 23 22 21 22 22 20 21 18 18 33 49 46 37 36 35 32 29 27 24 23 20 17 17 17 16 15 15 15 15 14 14 14 14 13 13 13 13 14 14 14 14 15 20 26 30 29 27 25 23 19 15 12 11 10 10 9 9 8 7 6 6 7 10 12 11
41 57 79 91 96 98 98 95 92 92 91 85 74 62 53 47 41 38 36 31 28 26 24 24 24 22 21 18 16 23 32 30 26 24 23 22 20 18 18 17 15 15 15 14 13 14 14 13 13 13 12 12 12 12 12 12 12 12 12 12 13 13 16 25 33 34 28 26 25 22 18 17 18 19 17 15 14 12 10 8 7 6 6 9 12
37 39 48 59 65 70 77 84 88 87 81 74 64 55 48 45 42 39 36 32 29 27 26 24 24 22 21 20 19 20 21 19 19 19 17 17 17 17 16 16 15 16 15 16 17 16 16 15 15 15 14 13 12 12 11 10 10 10 10 10 11 12 14 21 32 37 35 29 23 18 18 23 30 35 32 26 21 17 14 11 8 7 7 6 7
42 39 39 39 40 40 42 45 47 47 45 42 39 37 35 33 32 30 30 29 28 27 26 25 25 24 23 22 21 20 19 18 17 17 17 18 18 17 17 17 18 18 18 18 18 18 19 19 18 16 16 15 14 14 13 13 12 11 11 10 10 13 21 31 39 44 45 42 34 26 22 26 36 43 39 29 21 16 13 11 8 6 6 6 6
45 45 43 41 40 38 36 35 35 34 34 34 34 34 33 31 31 31 30 29 29 28 28 28 27 25 24 24 23 22 20 20 20 19 20 20 20 20 20 20 20 20 20 19 19 19 18 16 16 17 17 16 15 14 13 12 12 10 11 11 9 11 19 27 31 33 35 36 36 36 34 32 34 33 26 17 13 10 8 8 7 6 6 5 6
45 47 48 47 46 45 43 42 41 40 40 40 39 39 38 37 37 35 34 33 33 31 30 31 30 29 28 27 25 25 24 23 22 22 22 22 23 23 22 21 21 20 20 19 18 18 18 17 18 16 14 14 16 16 15 16 16 15 13 13 12 12 13 14 15 17 17 17 18 20 21 21 19 18 16 13 11 9 7 7 6 6 6 5 5
46 47 49 49 50 49 48 47 48 48 47 47 46 45 44 42 40 39 38 37 36 34 33 33 33 31 30 29 29 28 27 26 25 25 25 24 24 24 23 23 22 20 19 19 18 17 16 14 13 15 21 28 30 28 25 23 20 16 13 14 16 17 17 16 16 16 17 17 18 18 19 19 19 19 18 15 11 9 8 7 7 6 6 6 5
49 49 49 50 50 50 51 51 51 51 52 51 50 49 48 45 44 44 42 40 39 37 35 34 34 33 32 32 31 30 29 29 28 27 27 26 26 25 24 22 21 20 19 18 16 17 17 19 26 37 44 40 29 20 16 14 12 8 8 15 23 24 21 18 15 14 14 15 17 17 17 17 16 15 14 12 11 11 10 9 9 8 7 7 6
50 50 49 49 49 50 52 53 52 52 53 52 51 51 51 48 47 48 47 44 43 41 38 37 37 36 35 33 33 33 32 31 30 28 28 27 24 22 22 21 19 19 17 16 18 23 29 37 43 41 32 22 14 11 12 12 12 9 9 18 28 30 26 21 16 14 14 13 13 14 13 14 15 15 16 16 16 17 17 16 17 16 15 16 20
49 48 48 48 49 50 51 51 52 53 52 51 51 52 50 48 49 50 49 46 44 43 42 41 40 38 37 36 35 34 32 31 30 28 26 25 23 22 20 18 17 16 15 16 18 19 19 23 26 20 14 13 14 15 16 16 17 17 19 25 30 31 29 26 23 21 20 19 19 20 20 22 23 23 23 24 23 22 21 20 19 19 18 19 25
48 47 47 46 47 48 49 49 50 50 50 50 51 50 48 47 48 47 45 43 43 42 40 40 39 38 37 35 34 33 32 30 28 26 25 25 23 22 21 19 18 17 15 14 14 12 10 12 15 16 19 25 29 32 36 38 38 38 38 38 38 36 34 32 29 27 26 25 24 24 24 24 24 25 25 26 26 24 23 21 21 22 22 20 21
43 43 44 44 46 47 47 46 46 46 46 47 48 45 43 44 44 43 41 40 39 38 38 38 37 35 35 34 33 31 29 28 28 27 25 23 21 21 20 17 14 11 9 8 10 12 17 25 34 41 47 50 51 51 48 44 39 36 33 31 29 28 26 24 22 20 19 17 16 15 14 13 12 13 13 13 14 15 15 16 17 18 20 21 21
28 30 32 34 37 39 40 40 42 43 44 44 43 41 40 41 41 38 36 36 36 36 36 35 35 35 33 30 26 25 25 25 24 22 18 15 14 13 11 8 6 5 8 14 23 34 46 56 60 58 51 41 33 27 22 20 18 15 13 12 12 11 11 12 12 11 10 9 8 7 6 5 5 5 5 4 5 5 5 7 8 9 10 11 12
14 13 13 15 17 18 20 22 23 27 30 32 32 32 34 36 36 35 35 36 35 33 31 29 29 27 23 17 15 15 15 13 12 12 10 7 5 5 5 5 7 14 28 45 60 67 65 56 42 28 18 11 8 7 6 6 5 4 4 4 3 4 4 5 5 5 5 4 4 4 3 3 3 3 3 3 3 3 4 4 4 4 5 5 5
8 7 7 7 7 7 7 7 7 9 11 12 13 15 18 20 22 25 26 25 24 22 18 16 14 12 10 9 7 6 6 6 7 6 4 3 5 7 8 12 26 49 70 78 71 55 36 21 11 6 6 6 5 4 3 3 3 3 3 3 2 2 3 2 2 3 3 3 3 3 4 5 6 7 7 5 5 5 4 4 4 4 4 4 3
6 6 6 5 5 6 5 5 5 5 5 5 6 6 6 7 8 10 11 11 12 10 7 6 7 7 6 5 5 6 6 5 4 4 7 12 15 17 22 39 65 82 77 56 33 18 9 7 7 6 5 4 3 3 3 3 3 3 2 3 3 3 4 6 7 9 11 11 13 15 17 19 20 20 19 16 15 15 13 11 10 10 10 10 11
6 6 6 6 6 6 5 5 5 5 5 5 4 3 4 5 5 4 5 5 4 4 6 7 8 7 7 8 7 7 7 10 16 23 27 28 32 43 60 74 75 59 33 14 8 7 7 7 6 4 4 4 4 4 3 3 3 4 4 5 8 12 17 21 25 28 31 32 34 35 37 39 40 40 39 38 39 42 42 41 41 43 46 49 50
7 6 6 6 5 5 6 6 5 5 5 4 4 6 12 15 11 8 9 10 10 13 16 14 12 12 15 17 20 29 39 46 47 47 48 55 66 75 74 58 35 15 7 7 8 7 5 5 5 5 5 5 3 4 4 5 6 8 11 17 24 30 36 41 44 47 50 51 52 53 54 57 62 66 69 71 75 80 82 83 85 86 86 84 80
6 6 7 7 6 6 6 4 3 4 4 7 15 27 40 51 51 41 29 23 22 24 24 26 33 42 49 58 71 81 77 64 56 61 75 85 80 60 36 17 8 7 9 7 5 5 5 5 5 5 5 4 4 6 8 12 17 22 28 35 41 46 52 57 60 61 62 63 66 71 75 79 83 87 89 91 93 95 96 97 97 96 93 88 82
7 7 5 3 4 5 5 9 20 31 37 47 63 74 81 86 81 61 39 31 36 43 49 60 77 90 96 99 98 86 69 63 74 87 87 69 43 21 10 9 9 8 6 5 6 6 5 5 5 5 4 5 7 12 18 26 34 39 43 48 54 63 71 72 71 71 73 78 83 88 90 91 92 93 95 97 98 99 101 102 101 97 90 82 75
5 7 8 11 21 33 43 56 73 84 90 93 92 84 77 74 63 43 31 40 60 74 79 85 92 91 84 75 67 65 75 87 89 74 49 26 14 11 10 9 7 5 6 7 6 5 5 5 5 5 5 9 15 24 33 41 46 50 55 62 73 84 87 83 79 80 83 89 93 95 96 97 98 98 98 97 97 97 98 97 93 88 82 78 74
32 39 49 58 69 80 89 95 98 98 95 85 64 46 42 47 45 38 41 62 82 86 76 64 54 46 44 52 67 84 90 78 53 30 17 13 12 10 8 7 7 7 7 6 6 7 7 6 5 5 9 16 26 36 45 51 57 61 66 75 87 93 89 83 82 85 89 94 98 100 101 100 96 91 87 86 87 91 95 97 97 95 93 88 80
71 80 89 93 96 99 100 100 97 94 89 78 62 49 45 44 42 41 50 65 74 68 53 40 37 46 65 84 92 84 61 35 19 14 13 12 10 8 8 8 7 6 6 7 8 8 6 5 6 7 12 23 36 47 55 61 66 69 71 76 82 83 82 84 88 92 96 99 99 98 98 96 94 93 93 94 94 92 89 86 82 78 73 65 53
87 96 100 97 97 99 101 100 99 98 96 92 89 86 81 74 68 65 64 64 62 58 57 61 72 86 96 92 72 49 28 16 13 13 12 11 11 9 8 7 7 8 9 9 8 7 6 6 6 7 15 30 44 54 63 71 73 74 75 75 73 73 79 88 94 97 98 99 98 99 101 100 98 94 86 79 72 65 60 58 56 55 53 44 30
98 102 101 99 99 100 101 100 100 100 100 98 98 100 100 98 97 94 90 87 85 85 90 96 100 98 86 66 45 29 19 14 13 14 13 13 10 8 8 9 8 9 9 9 9 9 7 6 5 8 18 34 49 60 72 80 81 81 82 83 82 84 89 95 98 99 100 100 99 97 89 77 68 61 56 56 59 63 68 73 77 81 85 80 66
101 99 99 101 101 100 100 101 100 100 100 100 99 100 100 100 100 100 99 99 100 100 100 99 92 78 59 42 30 21 16 15 16 16 13 11 9 9 9 8 8 9 11 10 10 9 7 6 6 8 17 36 55 68 77 85 89 90 91 94 96 97 97 99 101 100 98 98 94 81 64 56 60 68 74 79 82 84 85 85 85 84 87 93 95
100 100 101 100 99 100 100 100 100 100 100 100 100 100 100 100 100 100 100 100 101 100 96 88 75 57 40 29 23 18 17 18 17 13 11 11 11 10 9 8 10 11 11 10 10 9 8 7 5 6 17 37 58 72 81 89 95 97 98 98 99 100 100 101 101 98 98 99 92 78 71 79 90 92 88 83 79 78 79 81 85 83 79 82 94
99 100 100 99 99 101 101 100 100 101 100 100 100 100 100 100 100 100 101 101 100 95 86 75 62 45 32 24 21 19 19 17 14 12 12 12 11 10 10 10 11 11 10 10 10 9 7 7 5 6 16 34 57 76 87 92 96 101 102 100 99 101 102 100 98 100 102 98 89 85 91 98 93 80 73 74 76 77 77 79 83 87 82 77 84
101 100 100 101 99 99 99 100 100 100 99 100 100 100 100 100 101 101 102 101 96 88 78 66 52 38 28 23 21 19 18 15 12 11 12 12 12 13 12 11 11 12 10 10 9 8 8 7 5 6 13 31 55 78 91 96 99 101 101 100 100 102 101 101 102 101 93 83 83 92 100 94 77 66 72 84 90 92 94 92 90 92 92 87 87
100 99 100 101 99 99 101 101 100 100 100 100 101 101 101 101 101 101 99 95 87 78 66 52 40 31 25 22 21 18 16 14 12 12 13 13 13 13 12 12 13 12 9 9 10 9 8 6 5 5 12 28 51 74 91 100 101 99 99 101 101 100 101 103 96 81 69 74 89 100 96 80 62 58 73 91 98 97 99 101 98 97 98 97 97
101 100 100 101 100 100 100 100 100 100 100 101 104 104 102 101 99 96 90 83 73 63 53 42 34 29 25 22 20 18 15 14 13 13 14 13 13 13 13 13 12 11 10 10 10 9 7 7 6 5 10 25 47 71 90 99 100 99 100 101 99 100 101 92 71 59 69 89 96 87 74 63 51 45 57 81 97 100 99 99 100 100 101 103 103
101 99 99 101 100 100 100 100 100 100 101 103 105 102 97 95 92 87 81 74 65 56 48 39 33 29 27 24 22 19 17 16 15 14 14 14 13 13 14 14 13 11 10 9 10 9 8 7 6 5 10 22 43 69 90 100 100 100 100 99 99 101 92 68 54 66 88 91 76 65 68 75 72 60 50 56 77 95 100 100 101 101 99 99 101
100 99 100 101 99 100 101 100 99 100 101 103 104 101 96 94 91 85 78 71 63 55 48 41 36 34 32 29 26 23 20 19 18 17 16 15 13 13 14 15 14 12 9 10 11 10 8 7 6 6 9 19 38 66 90 101 100 99 100 100 101 96 77 58 62 81 84 67 60 73 89 96 99 92 68 45 48 68 82 87 93 100 101 100 101
99 99 101 100 99 100 101 100 101 103 102 102 103 102 98 95 92 87 80 72 64 57 50 44 40 38 36 34 32 30 27 24 22 20 18 16 14 14 15 16 15 12 10 10 10 10 9 8 7 5 7 16 33 59 85 100 101 99 100 101 98 91 76 64 65 70 67 63 75 95 102 97 99 104 90 57 35 36 48 56 61 68 75 79 79
100 100 101 100 100 101 100 99 101 103 102 102 103 102 100 98 94 86 78 71 65 61 56 51 47 44 42 40 40 37 35 32 29 26 23 20 17 17 17 17 15 13 10 9 10 10 9 8 7 5 7 14 27 48 77 97 101 99 100 100 96 92 89 77 62 59 70 85 95 101 101 98 98 103 101 80 47 26 26 31 32 32 36 40 39
100 100 101 102 102 101 101 101 102 102 102 102 101 99 101 102 99 92 83 75 69 65 61 58 54 52 50 49 48 47 45 43 39 35 31 27 23 21 20 18 17 14 11 9 10 10 9 9 8 6 6 11 21 39 66 90 100 100 101 100 94 93 98 94 78 74 88 101 101 98 100 102 99 98 102 97 76 50 34 28 24 21 21 21 20
101 102 103 103 102 101 101 101 100 100 101 103 102 99 98 98 97 94 89 83 79 75 71 67 64 62 60 58 57 56 54 53 51 48 44 37 31 26 23 20 18 15 12 10 10 10 9 9 9 6 6 10 17 30 53 81 98 100 100 100 96 93 98 101 96 92 97 102 101 98 100 101 102 101 100 101 98 88 74 62 51 42 34 30 25
101 99 96 93 92 91 92 95 95 94 94 97 100 101 98 94 90 86 83 80 78 76 74 72 70 68 66 65 64 64 65 65 64 61 56 49 40 32 27 23 20 16 13 10 10 10 10 9 9 7 6 8 14 23 41 69 93 100 99 100 99 96 95 98 100 100 100 101 99 96 94 96 101 102 100 99 100 100 98 95 91 83 76 72 64
Wind_Speed
34 32 31 29 26 25 26 25 25 24 23 23 23 23 23 24 24 24 23 23 21 19 17 16 16 17 17 18 18 18 19 19 20 20 20 20 21 21 21 21 21 22 22 23 23 23 22 22 22 22 22 22 23 23 24 24 24 24 24 24 24 24 24 24 23 25 27 27 26 27 27 27 27 27 27 26 26 26 26 28 29 29 29 29 30
37 34 30 28 26 27 28 29 28 26 24 24 24 24 24 23 24 25 25 24 23 21 20 19 19 19 19 19 19 18 18 19 20 21 21 21 22 22 22 22 23 23 24 24 25 25 25 24 24 25 25 25 26 26 26 27 28 28 28 28 28 28 27 27 27 27 28 29 29 29 30 31 30 31 31 30 30 29 29 30 30 31 31 31 31
37 35 31 30 29 30 32 33 31 27 26 25 25 26 25 24 25 25 26 26 25 24 23 22 22 22 21 20 20 20 20 20 20 20 21 22 23 23 23 23 23 24 25 25 26 26 26 26 26 26 27 27 28 28 28 29 30 30 30 30 31 31 31 31 31 30 30 31 32 32 32 33 33 33 34 34 33 33 33 33 33 33 33 33 34
34 34 33 32 32 33 35 36 34 29 26 27 27 27 26 26 27 27 27 28 28 27 27 26 24 24 24 23 22 22 22 23 23 23 23 23 24 24 23 23 24 24 25 26 26 26 27 27 27 28 28 29 29 30 30 30 30 31 31 31 31 32 32 33 34 34 33 33 34 35 35 35 36 36 36 36 36 36 36 36 37 36 36 36 36
33 33 33 33 33 34 36 37 37 33 29 28 30 29 27 26 27 28 29 31 31 30 30 28 27 26 26 27 27 26 25 24 25 25 26 26 26 26 26 26 26 26 26 26 26 26 26 27 28 28 30 31 31 31 32 31 31 31 31 31 31 31 31 32 33 34 34 35 36 37 37 37 38 39 39 39 39 39 39 39 39 40 39 39 39
36 35 35 35 35 35 35 35 36 36 33 32 32 33 31 30 29 29 29 31 32 33 32 31 30 29 29 29 30 30 29 28 27 27 27 28 29 29 29 29 29 29 29 29 28 28 28 28 29 29 30 31 32 33 33 34 34 33 33 32 31 30 30 31 31 32 32 33 34 35 37 38 38 39 40 41 41 41 41 41 41 41 42 41 41
41 40 39 39 39 39 38 37 37 38 37 35 35 35 35 35 33 31 31 31 32 33 33 33 32 32 32 31 31 32 32 31 30 29 29 29 30 31 32 32 32 32 32 32 32 32 32 32 33 33 34 34 35 35 35 35 35 35 35 35 34 34 33 33 33 32 32 32 33 33 34 36 37 37 39 40 41 41 42 42 42 43 43 43 42
45 45 44 44 43 43 44 44 43 41 39 38 38 38 39 39 38 36 35 35 34 34 33 33 34 34 34 34 34 34 34 34 34 33 32 32 32 33 34 33 33 33 34 35 35 35 35 35 36 36 36 37 38 38 38 38 38 38 39 39 38 38 38 37 37 36 36 36 35 35 35 35 36 37 38 39 40 41 42 43 43 43 44 44 43
48 48 48 48 47 47 47 47 47 44 42 41 41 41 41 41 40 39 39 39 38 37 36 36 38 37 37 38 39 38 37 38 37 35 35 37 38 37 37 37 36 36 35 36 37 37 37 38 38 38 38 39 40 40 41 41 41 42 43 44 43 43 42 41 41 41 40 40 39 39 38 37 38 38 39 40 41 42 43 44 44 44 45 45 44
49 50 50 51 51 51 50 50 50 48 46 46 46 45 44 43 42 41 41 41 41 40 40 40 41 42 41 40 42 41 40 40 39 36 37 40 42 40 40 40 40 40 40 39 39 40 40 41 41 42 42 43 43 43 43 43 43 43 44 46 47 47 46 46 46 46 46 45 43 42 42 41 40 41 41 42 43 44 45 46 46 46 46 45 45
48 50 51 52 52 53 52 52 52 52 51 51 50 49 49 48 47 45 45 45 46 45 45 45 44 44 44 42 42 43 42 41 40 40 40 41 42 41 41 41 41 40 40 41 41 42 43 44 44 44 44 45 45 45 45 45 45 44 44 45 46 46 47 47 48 49 50 50 49 48 47 46 45 45 44 44 45 45 46 47 48 48 48 47 46
46 47 49 51 52 53 53 53 53 53 53 53 53 52 52 51 51 50 50 50 50 49 49 49 49 49 47 45 45 44 44 44 45 45 45 44 44 44 44 43 42 42 43 43 44 45 46 47 47 47 47 47 47 47 47 47 47 47 46 46 47 47 48 49 49 49 50 51 51 50 49 48 48 47 47 47 47 47 48 48 49 50 51 51 49
45 45 47 50 51 52 53 53 53 53 53 53 53 53 53 52 52 52 51 51 51 50 49 50 52 52 51 51 50 47 46 49 50 49 49 49 48 48 48 47 47 48 48 49 49 49 50 50 50 49 49 49 49 50 49 49 49 49 48 48 49 50 52 53 52 51 50 49 50 49 49 48 47 46 46 46 46 47 48 49 50 50 52 53 54
47 47 48 50 51 51 51 52 52 52 51 51 52 52 52 53 53 52 52 52 52 51 50 50 52 53 53 54 53 49 49 51 52 52 53 52 52 53 52 51 51 52 52 52 52 52 52 52 52 52 52 52 52 52 52 52 52 52 51 51 51 51 53 54 54 53 52 51 50 50 49 48 47 46 46 47 47 48 48 49 50 51 52 53 55
50 51 52 52 51 50 50 50 50 50 50 51 52 52 53 53 54 54 54 54 54 54 53 53 54 55 56 55 53 52 53 54 54 54 55 55 55 55 55 54 54 54 54 53 53 52 52 53 53 54 54 55 54 54 54 54 54 54 54 54 53 53 53 55 55 54 54 54 53 53 51 50 49 49 50 52 52 52 52 52 52 52 53 53 55
51 53 54 55 55 54 53 53 54 55 56 56 57 57 57 56 56 57 58 58 58 57 57 56 57 57 58 56 55 55 56 56 56 55 55 55 55 55 55 54 54 54 53 53 53 53 53 53 54 55 55 55 56 55 55 56 56 56 56 55 55 55 55 56 57 57 56 56 56 55 55 54 54 55 56 58 58 58 58 57 56 56 56 56 56
51 52 53 55 56 57 57 57 58 58 58 58 58 59 59 58 58 58 59 59 58 57 57 57 57 57 57 56 55 56 56 55 55 54 53 53 53 53 53 53 54 53 53 53 53 54 55 55 56 56 56 56 56 55 55 56 56 56 56 56 56 57 57 58 59 60 60 60 59 59 60 61 62 63 63 63 63 64 64 62 61 61 60 58 58
51 51 52 53 54 55 55 55 56 56 56 55 55 55 56 56 56 56 56 56 55 55 55 55 56 55 54 54 54 54 53 53 52 52 51 51 52 52 52 53 53 53 53 53 53 54 55 56 56 56 56 56 55 55 54 55 55 55 56 56 57 58 60 61 62 63 63 63 63 64 65 66 68 68 67 66 66 66 66 65 65 66 64 62 61
49 50 50 51 52 52 53 53 53 53 53 53 52 52 53 53 53 53 53 53 53 53 52 52 53 53 52 53 53 52 52 51 51 51 51 51 52 52 52 52 52 52 53 53 53 53 54 54 54 54 54 54 54 53 52 52 52 52 54 55 56 58 60 62 63 64 65 65 66 66 67 67 68 67 66 66 66 66 66 66 67 67 66 66 65
48 48 49 50 50 50 51 51 51 51 51 51 51 51 51 51 51 51 51 51 52 52 51 51 51 51 51 51 52 52 52 51 51 52 52 52 52 52 52 52 52 52 52 52 52 52 52 52 52 51 50 49 49 50 50 50 51 52 54 54 55 56 57 58 60 61 63 63 64 65 65 65 66 66 66 66 67 68 69 69 69 69 68 68 68
46 47 48 48 49 49 49 49 50 50 50 50 50 50 50 50 49 49 50 50 51 51 50 50 51 51 51 51 51 51 52 52 52 52 51 51 51 51 51 50 50 51 51 50 51 51 50 51 50 48 48 48 50 51 52 54 55 55 56 56 56 57 58 58 60 61 62 63 64 66 66 67 69 70 70 71 71 72 71 71 71 71 71 70 70
45 45 46 47 48 48 48 49 49 49 49 50 49 50 50 50 48 48 49 50 50 50 50 50 50 50 50 50 51 51 51 51 51 50 50 49 49 49 49 49 49 49 49 49 50 49 49 50 50 49 50 52 53 53 54 54 55 56 57 58 59 60 61 61 62 63 64 66 67 68 69 69 70 71 71 71 71 70 70 71 71 71 71 71 71
44 45 45 46 46 46 47 48 48 48 49 49 49 50 50 50 49 49 50 50 50 50 50 49 49 50 50 50 50 50 49 49 48 48 47 47 47 47 47 46 47 48 48 48 49 49 49 50 51 51 52 52 52 52 53 53 53 54 55 57 58 60 61 62 62 62 63 63 64 64 64 64 64 65 65 65 66 67 67 68 69 69 70 70 71
46 46 46 46 45 45 45 46 46 47 48 48 49 49 50 49 49 50 50 50 50 50 49 49 49 49 49 49 48 48 48 47 47 46 46 46 46 45 45 45 47 48 47 47 48 48 49 49 49 49 49 49 49 50 50 50 51 52 54 55 57 58 59 59 60 60 59 59 60 60 60 60 61 61 62 62 63 63 63 64 65 65 66 67 69
47 46 46 46 46 45 45 45 45 46 46 47 48 49 48 47 48 49 49 49 49 49 48 47 47 47 47 47 46 46 46 46 46 45 45 45 45 45 46 46 46 47 47 47 47 47 46 46 46 46 46 46 46 47 47 49 51 52 54 55 57 58 58 59 59 59 59 59 60 60 60 61 61 62 63 63 63 63 63 63 63 64 64 65 65
45 44 44 44 45 45 45 46 46 46 46 46 47 48 47 47 48 48 48 48 48 47 47 46 46 46 46 46 46 45 45 45 45 45 45 46 46 46 46 46 45 45 44 43 42 42 42 42 42 42 42 42 43 45 47 49 51 53 55 57 58 59 60 60 60 60 60 60 60 61 61 61 62 62 62 63 63 64 64 65 65 66 66 66 66
44 44 43 43 44 45 45 45 45 45 45 46 47 47 46 46 47 46 46 47 47 46 46 46 46 46 46 46 46 46 45 45 45 45 46 45 45 45 44 43 41 39 38 38 38 38 38 37 37 37 39 41 43 46 48 50 52 54 55 57 58 59 60 61 61 61 61 61 62 62 62 62 62 62 62 62 63 63 64 65 66 66 67 68 68
45 44 44 43 44 44 44 44 44 45 45 46 46 46 46 46 46 46 46 47 46 45 45 45 45 46 46 46 45 45 44 44 43 43 43 42 42 40 38 36 34 33 34 34 34 32 31 32 35 37 40 42 44 46 48 50 51 53 54 56 57 58 59 60 61 61 61 61 61 60 58 57 57 57 58 59 60 60 62 63 64 65 66 67 67
45 44 43 43 43 43 43 42 43 43 43 43 44 45 45 45 45 46 46 46 45 44 44 44 44 44 43 42 41 40 40 39 38 37 36 35 34 32 31 31 31 31 30 27 26 27 29 32 36 38 41 43 45 47 49 51 52 54 55 56 56 56 56 57 57 56 55 54 53 52 51 50 50 51 52 53 55 56 57 59 60 60 61 61 61
45 44 43 43 43 43 43 43 43 43 43 42 42 43 43 44 44 45 45 44 42 41 40 39 39 38 37 35 34 33 32 32 31 29 28 27 27 27 28 28 26 24 22 21 23 27 31 34 37 40 43 45 47 49 50 52 53 54 54 54 54 54 55 55 55 54 52 51 49 48 47 47 47 47 48 49 49 50 51 52 52 52 52 52 51
45 44 44 44 44 44 44 43 43 43 42 41 40 39 38 37 37 37 36 35 34 33 31 30 30 29 28 27 26 26 25 25 24 24 24 24 25 23 21 19 17 17 18 21 25 29 32 35 39 41 43 45 47 49 51 52 52 53 53 54 54 54 53 53 52 50 48 46 44 43 42 41 41 42 43 43 43 43 43 43 43 43 43 44 44
44 43 43 44 44 43 41 40 39 37 35 33 32 30 28 28 28 28 26 26 25 25 24 23 23 23 23 23 23 22 22 23 23 24 23 21 18 15 14 13 14 16 19 23 26 30 34 37 39 42 44 46 48 49 50 51 52 53 53 53 52 50 48 46 43 41 39 37 36 36 36 36 36 37 37 37 36 36 36 37 38 39 40 40 40
39 39 39 38 36 34 32 30 27 26 24 23 24 24 25 26 26 25 24 23 23 22 22 21 21 23 24 24 23 23 23 23 22 20 17 14 12 11 11 11 13 16 20 24 28 31 35 38 41 43 45 46 47 48 49 50 51 51 50 47 44 42 39 36 33 31 30 30 30 30 31 31 32 31 31 31 32 33 34 35 36 37 38 38 37
29 28 27 25 24 22 20 19 19 19 20 20 21 22 24 24 24 24 23 23 22 22 22 22 23 25 25 24 24 23 21 19 16 14 12 11 10 9 9 11 14 17 21 25 28 32 36 39 42 43 44 45 45 47 47 48 48 46 43 38 34 31 28 26 26 26 27 27 27 27 28 28 29 29 30 31 33 34 35 36 36 37 37 37 37
19 18 17 17 17 16 17 17 17 18 19 18 18 18 19 21 22 23 23 23 23 23 24 24 25 25 25 24 22 19 16 14 13 12 11 10 8 7 9 12 15 18 22 26 30 33 37 40 42 43 43 43 44 45 45 45 42 38 33 29 26 24 23 23 24 25 25 25 25 26 27 28 29 31 32 33 34 34 35 36 37 38 39 39 39
14 13 13 13 14 18 20 18 15 13 13 13 14 15 17 19 21 22 23 24 25 25 24 24 24 24 22 20 18 15 14 13 12 11 10 8 7 8 10 13 16 19 23 27 31 34 38 41 42 42 42 42 43 44 43 41 36 30 26 24 23 22 22 22 22 22 23 24 25 26 28 29 30 31 32 33 34 35 36 37 38 39 39 40 39
12 10 10 11 13 17 20 19 16 14 13 12 13 15 16 17 18 20 22 23 23 22 22 22 22 21 20 18 15 14 13 13 12 10 9 8 7 9 11 14 17 20 24 28 31 35 39 41 43 42 41 42 42 42 40 35 30 25 23 23 22 21 21 20 20 21 22 23 24 25 26 28 30 31 33 33 34 34 34 34 34 33 33 33 33
12 12 11 11 12 14 17 18 19 19 19 19 20 20 18 17 17 19 20 21 21 21 22 22 21 20 18 16 15 14 13 13 12 11 9 8 8 9 11 14 17 21 25 29 32 36 39 42 43 42 41 42 42 40 36 30 25 22 22 21 20 18 17 17 18 19 20 20 21 24 26 28 29 30 30 29 28 28 28 28 27 26 25 26 27
14 12 10 8 9 11 14 17 20 21 22 24 27 27 24 21 20 20 21 22 23 23 22 21 20 18 16 15 15 14 14 13 12 11 9 8 8 9 12 15 19 23 26 29 33 36 39 42 43 42 41 42 42 39 33 25 21 21 20 17 15 15 14 15 16 17 18 19 22 25 26 26 25 24 24 24 25 25 25 25 25 24 23 23 23
15 12 9 8 9 10 13 16 19 21 22 24 27 29 27 24 22 22 22 23 24 23 21 20 18 17 16 16 15 15 14 14 13 11 9 8 9 10 12 16 19 23 26 29 32 36 39 42 44 43 41 41 41 38 30 22 19 20 17 14 13 13 13 13 14 16 18 21 24 25 23 21 20 21 22 22 23 24 23 23 22 21 21 21 20
16 12 10 9 8 8 10 13 16 18 19 21 24 25 25 23 22 22 23 23 22 21 20 19 18 17 17 17 16 15 15 14 12 10 9 9 10 11 13 16 20 23 26 29 32 35 39 42 44 43 41 41 41 37 28 21 19 17 15 13 12 11 11 12 14 17 20 24 24 21 18 17 17 18 19 20 21 22 21 20 19 18 18 18 18
15 12 10 9 8 8 8 10 11 13 15 17 19 20 21 21 21 22 21 21 20 19 18 18 17 17 17 17 16 15 15 14 12 10 10 10 11 12 14 17 20 23 26 28 31 35 39 42 44 44 42 41 41 36 27 21 18 15 13 12 10 9 9 12 15 19 22 22 19 15 14 14 15 15 16 17 18 18 17 16 15 14 14 14 15
13 11 11 9 9 9 9 9 10 11 12 14 16 17 18 18 19 18 18 17 17 17 17 17 17 16 16 15 15 15 14 13 11 11 11 11 12 13 15 18 21 23 25 28 31 34 38 41 44 44 42 41 40 36 26 20 17 13 11 9 8 8 9 12 17 19 18 14 11 10 12 13 12 12 13 15 15 14 13 12 11 10 10 11 11
13 12 11 10 9 10 10 9 10 11 11 12 13 14 15 16 16 16 16 16 16 16 16 15 15 15 14 14 14 14 13 12 12 12 12 13 13 14 16 18 21 23 25 27 30 33 37 40 43 44 42 41 41 37 28 19 13 10 9 7 7 9 12 15 17 15 10 7 7 9 10 10 10 11 12 14 15 14 12 9 7 5 5 5 7
12 11 10 9 9 9 10 10 10 11 12 13 14 14 14 15 15 15 15 15 15 15 14 14 14 13 13 13 13 13 13 13 13 14 14 14 14 15 16 19 21 23 24 27 29 32 36 39 42 44 42 41 41 38 29 17 10 8 8 7 7 10 13 15 13 9 5 5 5 5 5 8 10 12 13 13 13 14 12 10 7 4 1 1 3
12 11 10 9 8 8 8 9 10 11 12 13 14 14 14 14 14 14 14 14 14 14 14 13 13 13 13 13 13 13 13 13 14 15 15 15 15 16 17 19 21 22 24 26 29 31 34 38 41 43 42 41 40 39 30 17 8 6 7 7 7 10 12 11 8 5 3 2 1 2 6 9 11 12 13 12 11 12 12 11 10 8 6 6 5
14 14 13 11 10 8 7 8 9 11 12 12 13 13 13 13 14 14 14 14 14 14 14 14 14 14 14 14 14 14 14 14 15 16 16 16 16 17 18 20 21 22 23 25 28 30 33 36 39 42 42 40 40 39 31 17 8 6 6 6 7 8 8 7 5 2 1 2 3 6 10 10 9 10 11 11 10 10 10 11 11 10 9 9 8
15 14 13 12 10 8 7 7 8 10 11 12 13 13 13 14 14 15 15 15 14 14 14 14 14 15 15 15 15 15 15 15 15 16 17 17 17 18 19 20 22 23 23 24 27 29 32 35 38 41 42 40 39 40 34 20 10 7 6 6 6 5 4 4 3 2 4 5 6 8 9 10 9 9 10 10 10 9 10 10 10 10 10 9 9
13 12 11 11 9 8 7 6 7 8 10 11 12 13 14 15 15 15 16 15 15 15 15 15 15 15 15 15 15 15 15 15 16 16 17 17 17 18 19 20 22 23 23 23 25 28 31 33 36 39 41 40 38 40 37 25 13 7 5 6 6 4 1 2 2 4 5 4 4 6 8 10 11 10 9 9 9 9 10 10 10 10 10 9 8
10 10 9 9 8 7 6 5 6 7 8 10 11 12 13 14 15 15 16 16 15 15 15 15 15 15 15 15 15 15 15 16 16 16 17 17 18 19 20 21 22 23 23 23 24 27 29 32 34 37 40 40 38 39 38 30 17 8 4 5 8 7 4 3 2 2 2 1 2 3 6 9 11 11 9 8 7 8 9 9 10 10 10 9 9
9 9 8 8 7 6 6 6 6 7 8 9 11 12 13 14 15 15 16 16 16 16 16 16 15 15 15 15 15 15 16 16 16 16 17 17 18 19 20 21 22 23 23 22 23 25 28 30 32 35 38 39 38 37 38 34 22 11 5 5 8 10 8 7 6 5 2 1 1 2 5 8 9 10 9 7 6 6 6 6 7 7 8 8 8
Wind_Direction
251 251 252 255 262 266 266 266 267 268 269 268 264 260 260 261 262 264 264 264 263 264 266 267 268 270 272 273 271 268 264 261 260 260 261 261 261 262 261 261 260 260 260 260 260 260 261 262 262 262 262 263 264 265 267 267 267 268 268 268 268 267 266 266 266 269 272 273 272 272 272 271 269 268 266 264 263 262 262 264 265 266 266 266 267
251 252 254 258 263 265 263 264 264 263 267 269 266 262 259 259 260 262 262 260 259 258 259 261 263 265 267 268 269 269 266 264 260 257 257 257 258 259 259 259 259 258 258 258 259 260 261 262 263 265 265 265 265 265 266 267 268 268 269 269 269 269 268 267 266 265 267 269 270 271 272 272 271 271 270 269 267 265 263 263 264 265 266 266 267
255 256 260 264 265 265 264 261 259 261 265 266 266 264 261 259 259 259 259 259 259 259 259 260 261 263 263 263 265 266 266 264 261 256 253 253 254 254 254 255 255 255 255 255 256 258 259 260 261 263 265 266 267 267 267 267 267 268 268 269 269 270 270 270 269 267 266 267 267 267 268 270 270 270 270 269 269 268 266 265 264 264 264 265 266
258 258 261 263 263 267 267 261 255 257 262 263 266 266 261 260 260 258 258 259 260 261 262 263 262 261 259 258 258 261 262 262 261 257 254 253 253 254 254 254 255 255 257 257 257 258 260 261 262 262 264 264 265 266 266 266 267 268 268 269 269 270 271 271 271 270 269 268 268 268 267 267 268 269 269 269 269 268 268 267 266 265 265 265 265
258 258 259 260 260 263 266 262 256 255 257 261 268 267 262 263 263 259 259 260 261 262 262 263 263 261 259 257 255 257 258 260 260 260 260 259 259 260 260 260 259 259 259 260 261 262 263 265 266 266 266 266 265 265 265 265 265 266 267 267 268 268 269 270 271 271 270 269 269 270 269 268 268 268 269 270 270 269 268 268 267 267 266 266 265
257 258 258 260 260 260 264 265 260 258 259 262 267 268 264 264 264 263 263 262 261 262 261 261 261 260 258 256 255 256 257 259 261 262 263 264 265 265 265 264 263 263 262 261 262 264 266 268 270 271 271 271 270 269 269 268 267 266 266 266 266 266 267 267 268 269 270 270 270 270 270 270 270 269 269 269 270 270 270 269 268 268 268 267 266
259 259 258 259 261 260 262 264 262 262 264 265 265 265 265 264 263 264 264 262 260 261 261 261 260 259 257 256 256 257 258 259 262 262 262 264 265 265 264 264 264 264 265 265 266 268 270 271 273 275 276 276 275 274 273 272 271 269 267 266 265 267 267 267 266 266 268 269 270 270 271 272 272 271 270 270 270 269 269 269 269 269 268 268 267
261 262 262 261 261 260 260 261 262 263 265 265 263 262 263 263 262 262 263 262 262 262 263 263 261 260 259 259 259 261 261 260 261 264 266 265 263 262 261 261 263 264 266 267 269 271 272 274 276 277 277 278 278 278 276 275 274 272 271 269 269 269 269 269 267 266 267 267 268 268 269 270 272 273 273 272 271 269 268 268 268 267 267 268 267
259 260 261 262 262 261 261 262 263 262 262 262 261 260 261 262 262 261 262 263 263 263 264 264 264 264 263 261 261 263 265 264 263 266 269 268 266 264 262 261 261 263 265 267 268 270 271 274 275 277 278 279 280 280 279 278 276 275 273 271 271 271 271 271 270 269 269 269 268 268 268 269 270 271 272 272 272 271 270 268 267 266 265 266 265
256 257 259 259 260 260 260 261 262 262 261 261 260 260 260 261 261 262 263 264 264 265 266 266 267 266 264 263 263 263 264 266 266 267 270 269 268 268 268 267 266 267 268 268 269 270 271 273 275 276 278 279 280 280 280 280 280 279 277 274 272 272 272 272 272 271 271 270 269 269 269 270 270 271 271 271 271 270 270 269 268 267 264 263 263
254 255 257 258 259 259 260 260 260 261 262 262 262 261 261 261 261 262 263 264 265 267 267 267 266 266 265 265 266 265 267 269 269 268 268 269 269 270 270 271 270 271 272 271 271 273 273 274 275 276 277 277 278 278 279 279 280 280 280 276 273 272 273 274 274 273 272 270 269 269 269 270 271 271 271 270 270 269 268 267 267 266 264 263 261
252 253 255 256 257 258 259 259 260 261 262 263 263 263 263 262 261 261 262 263 264 265 266 267 266 266 266 266 266 266 268 270 270 269 269 271 272 271 271 271 272 273 273 273 274 275 275 276 276 276 277 277 277 276 276 277 277 277 278 277 275 275 276 277 277 275 272 269 267 267 268 269 270 271 271 270 270 269 268 266 265 265 263 262 260
251 253 256 256 256 256 257 258 258 259 260 262 263 264 265 265 265 264 264 264 264 265 266 267 267 266 267 266 265 265 265 266 268 269 271 272 273 273 273 273 275 276 276 276 276 276 277 277 277 277 277 276 275 276 276 275 275 274 274 274 274 275 277 278 277 275 272 269 266 265 265 266 267 268 269 269 269 269 269 268 266 264 263 261 259
251 253 255 255 254 254 255 255 255 256 258 260 261 262 264 265 266 267 267 268 268 267 267 268 268 268 267 267 267 268 267 266 267 268 270 271 273 274 274 275 277 277 277 278 278 278 278 278 278 277 276 275 275 275 275 274 274 273 273 273 273 273 274 275 275 273 270 268 266 264 262 262 263 265 267 268 269 269 270 270 269 267 265 262 261
253 252 254 254 253 252 252 252 253 255 257 259 261 262 262 263 264 265 266 268 269 269 269 269 269 268 268 268 269 270 269 269 269 270 271 272 273 274 275 276 276 277 277 277 277 278 278 277 277 276 276 275 275 275 274 273 273 272 273 273 272 271 271 271 271 269 267 266 266 264 262 262 263 265 267 269 270 270 271 270 270 269 267 265 263
255 254 254 255 256 256 256 255 256 258 260 262 263 264 264 264 264 264 265 267 268 269 269 269 268 268 269 269 269 268 268 269 270 271 271 272 273 274 275 275 275 276 276 277 277 277 277 276 276 275 275 275 275 275 274 273 272 272 272 272 271 270 269 268 268 267 266 265 265 263 262 263 266 269 270 271 271 271 271 270 270 268 267 265 265
257 256 256 256 257 258 258 258 259 260 262 263 264 265 265 265 265 265 265 266 267 267 268 268 267 267 268 269 268 268 268 269 270 271 271 272 272 272 273 273 274 275 276 276 277 277 276 275 275 275 275 275 276 276 275 273 273 272 272 271 269 269 268 268 267 266 266 265 265 263 262 263 266 270 272 272 272 272 271 271 270 268 266 264 263
260 259 259 258 258 258 259 259 260 260 261 262 262 263 263 264 264 264 264 265 265 265 265 266 266 266 267 267 268 268 269 269 270 271 271 271 271 272 272 273 274 275 275 275 275 275 275 275 276 276 276 277 277 276 275 274 273 272 271 270 269 268 268 268 267 267 266 266 266 265 265 266 268 271 271 271 270 270 269 269 268 267 266 264 262
263 262 261 261 260 260 260 260 260 260 261 261 261 261 261 262 262 263 263 264 264 264 264 264 265 266 266 267 268 269 269 269 270 270 270 271 271 272 273 274 274 274 275 275 274 275 275 276 276 277 277 277 277 275 274 274 273 271 270 269 269 268 268 268 268 269 269 269 269 268 268 269 269 270 270 269 268 268 267 266 265 264 264 263 262
263 262 262 262 262 261 261 261 261 261 261 260 260 260 260 260 261 262 262 262 263 263 263 263 264 265 265 266 267 268 268 269 269 270 270 271 272 272 273 273 273 274 274 274 275 275 276 276 277 277 276 276 276 276 275 275 275 274 273 272 271 270 269 269 270 270 270 270 270 270 269 269 268 268 267 267 268 267 267 266 264 264 263 262 261
261 261 261 262 262 261 261 261 261 260 261 261 261 261 261 260 260 261 262 262 262 263 263 263 263 264 264 265 265 266 266 267 268 269 270 270 271 271 272 272 273 273 274 274 275 276 276 277 277 277 276 276 278 279 278 277 276 276 275 274 272 271 271 270 270 270 270 269 269 268 268 268 268 267 267 267 268 267 266 265 265 264 263 262 261
260 260 260 260 260 261 261 260 260 260 260 261 261 261 262 262 261 261 262 262 262 263 263 263 263 263 264 264 264 264 265 266 266 267 268 269 270 270 271 271 272 273 273 274 275 276 277 277 277 278 278 279 280 279 278 277 276 275 274 273 272 272 271 271 271 271 270 270 269 269 269 269 269 269 269 269 268 268 267 266 265 264 264 263 263
258 258 258 259 259 259 259 259 259 259 260 260 260 261 261 262 262 262 263 263 263 264 264 264 264 264 264 264 264 265 265 266 266 266 267 267 268 269 270 271 272 272 273 274 275 277 278 278 278 279 280 280 280 280 279 278 276 275 274 274 273 273 273 274 274 273 273 272 272 272 273 273 272 272 271 271 270 269 268 267 266 266 265 264 263
260 259 259 259 259 258 258 258 258 258 258 259 259 260 260 261 262 262 263 263 264 264 265 265 265 265 265 265 266 266 266 266 266 266 267 268 268 269 270 271 272 274 275 276 276 277 278 278 280 281 282 282 281 281 280 279 277 276 276 275 275 275 275 275 275 275 275 275 275 275 275 275 275 275 274 273 272 271 270 269 269 268 267 266 265
261 261 260 260 259 258 258 258 258 258 258 258 259 259 259 260 261 261 262 263 263 264 265 265 265 265 265 266 266 267 267 267 267 268 269 270 270 271 272 273 274 276 276 276 276 277 279 281 282 283 283 283 281 280 279 278 278 278 277 277 276 276 276 275 275 275 275 275 275 274 274 273 273 273 273 273 273 272 272 272 271 270 269 268 267
261 261 260 260 259 259 259 258 258 258 258 258 259 260 260 260 260 261 261 262 262 263 263 264 264 264 265 265 266 266 267 267 267 268 269 270 271 271 272 273 274 274 274 275 277 279 281 283 283 283 283 282 281 280 280 279 279 278 278 278 277 277 277 277 277 276 275 274 273 272 272 271 271 271 271 271 271 271 271 271 270 270 269 269 268
262 262 261 261 260 260 260 259 259 259 258 258 259 260 259 259 259 260 260 260 261 261 262 263 263 263 264 264 265 265 265 266 266 267 267 268 269 269 270 270 271 272 274 276 279 281 283 284 284 284 283 283 282 281 281 281 281 281 281 280 280 280 279 279 278 277 276 275 274 274 273 272 272 271 271 270 270 270 270 269 269 269 269 269 269
264 263 263 262 261 261 261 260 260 260 258 258 259 259 258 258 258 258 259 259 260 261 261 262 262 262 263 263 263 264 264 264 264 264 265 265 266 266 267 267 269 272 275 278 281 283 286 286 286 286 285 285 286 287 287 287 287 286 286 285 284 283 282 281 280 279 278 277 276 274 273 272 271 271 270 269 269 268 268 268 269 269 268 269 269
265 264 264 263 262 262 263 263 262 262 261 260 259 258 258 258 257 257 258 259 259 260 260 260 260 261 261 261 261 260 260 260 260 261 262 263 264 265 266 267 270 272 276 280 285 288 290 290 290 291 292 293 294 295 295 294 293 292 291 289 288 287 285 284 282 281 280 278 277 276 274 273 272 271 269 268 268 268 267 268 268 268 268 268 268
266 265 265 265 265 265 265 265 264 264 263 262 260 259 258 257 256 256 257 258 258 257 257 257 257 257 256 255 255 254 254 255 256 257 259 260 263 265 267 268 270 274 280 288 293 296 297 298 299 299 300 300 300 299 298 297 295 294 292 291 289 288 287 286 284 283 282 281 279 278 277 275 274 272 270 270 269 269 269 269 269 268 268 268 267
266 267 267 267 266 266 266 266 265 265 264 262 260 258 256 255 255 256 256 255 253 251 251 251 250 249 247 246 245 246 248 250 252 255 258 260 262 264 265 266 270 280 292 301 304 304 305 305 305 305 304 303 303 301 299 297 295 293 292 291 290 289 287 286 285 283 282 281 279 278 276 274 273 271 271 270 270 270 270 269 269 269 268 268 267
267 267 267 267 267 267 266 264 262 260 258 256 253 251 249 249 251 250 247 243 240 239 239 239 238 238 238 238 239 241 244 249 253 255 257 257 257 257 259 268 282 296 305 308 309 310 311 311 310 309 308 306 304 301 299 297 295 294 293 292 291 289 287 285 284 282 280 278 276 275 274 273 272 271 270 270 269 269 269 269 269 269 269 268 268
267 266 266 265 263 261 258 254 251 249 248 246 245 243 242 242 242 238 232 230 229 228 227 227 228 230 233 234 237 241 246 250 251 250 247 244 244 250 263 283 301 309 311 311 313 316 317 316 314 312 310 308 304 302 299 298 296 295 294 292 290 288 286 284 282 280 278 276 275 274 274 273 273 272 271 270 269 269 269 269 269 268 268 269 270
260 258 255 251 247 245 242 237 233 234 239 242 241 238 235 234 232 228 225 225 225 223 221 222 226 231 234 237 241 244 245 243 237 231 228 231 239 255 281 301 308 311 314 317 320 320 320 319 318 316 312 308 305 303 302 300 299 297 295 292 289 286 284 282 280 279 278 277 277 276 275 275 273 272 271 270 270 270 270 270 269 269 269 270 272
234 232 232 231 229 224 222 223 225 229 234 236 232 227 224 223 223 223 222 222 223 224 225 226 229 234 237 239 239 235 229 223 219 218 221 230 246 275 297 305 310 316 320 320 320 320 322 323 322 319 314 310 309 307 306 304 302 299 295 291 287 284 282 280 279 279 279 279 280 279 279 277 276 275 275 274 274 273 273 272 272 272 272 272 273
205 211 217 216 209 205 210 218 223 223 220 216 211 212 215 219 220 221 222 224 226 229 231 231 232 233 232 228 222 215 212 213 214 215 222 237 261 287 301 309 317 321 319 318 319 323 326 328 326 321 317 315 314 313 311 308 304 298 292 289 288 285 282 280 280 280 282 283 283 283 282 281 280 280 280 280 279 278 277 276 275 274 273 273 272
202 210 207 194 188 194 206 218 226 227 223 215 208 209 215 221 225 226 226 228 230 230 230 229 227 222 216 209 205 205 208 211 212 217 228 246 269 290 305 314 318 317 316 318 323 327 330 330 329 325 322 320 320 318 315 310 304 296 291 290 288 285 281 281 282 284 286 287 287 286 285 285 284 284 284 284 284 283 281 280 278 277 275 273 271
202 199 191 187 188 196 207 218 227 231 230 225 223 223 226 229 232 232 230 229 228 224 220 216 210 205 201 199 201 205 207 209 215 224 235 251 274 294 308 314 314 315 317 321 326 329 331 333 332 329 327 326 325 323 318 310 301 296 295 292 288 284 282 283 285 287 288 289 292 293 293 292 291 290 290 290 288 286 284 283 281 279 276 274 271
197 188 187 198 206 211 217 222 225 228 228 226 226 229 233 236 236 232 227 222 216 210 204 199 196 195 197 200 203 205 209 214 222 229 239 258 280 297 307 311 314 317 321 324 328 331 333 334 334 332 331 331 330 327 321 310 300 299 299 293 286 285 285 285 287 291 295 298 302 304 303 302 301 300 300 298 296 293 289 286 282 278 275 272 268
198 196 206 217 218 219 223 224 224 225 226 225 225 227 230 233 230 222 214 209 203 197 193 192 193 195 199 203 205 208 213 220 225 232 245 265 282 296 306 312 316 320 322 326 329 332 334 336 337 335 334 334 335 331 322 309 301 301 298 288 281 284 286 289 298 304 304 306 310 313 311 309 308 307 305 302 298 294 290 287 283 277 271 267 264
203 204 210 211 207 208 215 220 223 224 225 226 225 225 225 222 216 208 203 199 195 191 191 193 196 199 202 205 207 211 218 224 230 238 254 270 284 298 308 315 318 320 323 327 331 333 336 338 339 337 336 337 338 334 323 309 305 303 295 286 284 285 290 301 307 305 302 306 312 315 313 311 312 312 310 307 302 296 292 289 284 277 269 262 258
206 205 200 193 191 195 202 210 213 213 216 220 219 215 211 205 200 197 194 192 190 191 195 199 202 203 205 206 209 216 224 231 237 249 263 276 290 302 311 316 318 320 324 329 332 335 338 340 340 339 338 339 340 337 326 311 305 303 294 286 285 289 300 307 304 299 300 306 312 313 311 312 315 318 319 318 313 305 297 290 283 277 267 257 251
206 199 189 185 188 192 197 201 199 196 200 204 201 197 194 192 190 190 190 191 193 197 201 205 206 207 208 211 217 225 232 239 248 259 270 282 295 305 312 316 317 319 324 330 334 337 339 341 342 341 339 340 342 341 330 313 305 301 292 285 290 302 311 310 304 304 308 314 314 311 311 314 318 328 339 345 345 336 319 302 290 279 268 255 246
201 194 188 188 191 191 192 195 193 191 194 196 193 189 188 188 188 190 193 196 200 203 207 209 211 212 215 221 227 235 243 251 259 268 277 286 296 304 311 315 317 319 325 330 335 337 340 343 344 343 340 341 344 344 336 319 304 294 287 288 299 310 314 314 311 313 321 327 317 314 317 324 336 352 3 9 11 9 357 338 319 298 272 248 229
196 190 184 184 187 189 191 192 192 193 196 197 194 192 191 191 193 197 201 204 208 211 213 216 218 221 226 233 239 245 253 260 268 275 282 288 296 304 310 314 316 319 324 330 334 338 341 343 345 344 342 342 346 346 340 325 302 286 286 291 299 308 316 320 320 322 332 331 318 323 345 358 5 11 16 18 21 25 27 21 12 9 35 132 169
177 167 161 161 166 174 182 187 190 195 199 199 198 196 195 196 199 204 209 213 217 219 222 225 228 233 238 244 250 256 262 269 275 280 285 290 296 303 308 312 315 319 324 330 334 338 341 343 345 346 344 343 346 348 344 330 303 288 290 292 300 312 321 328 332 337 343 333 324 15 21 14 10 9 13 19 27 33 39 43 45 53 71 90 108
161 154 152 152 153 158 170 182 190 195 199 203 205 203 202 204 208 212 217 220 223 226 229 233 237 241 246 251 257 264 270 275 279 283 286 290 296 302 307 311 315 318 324 330 333 337 340 343 345 347 345 344 346 348 347 336 311 296 289 278 290 312 328 344 358 11 76 79 42 20 11 8 7 6 10 20 33 39 46 53 56 60 72 86 97
165 159 158 158 158 160 168 180 192 198 201 205 208 210 212 214 216 220 223 226 229 232 236 239 244 248 252 257 262 268 273 278 282 286 288 291 296 301 306 310 314 317 323 329 332 336 339 342 344 347 347 345 346 349 349 342 323 304 283 257 265 301 342 14 34 103 127 92 53 39 31 25 23 19 17 24 35 45 54 61 64 66 72 80 89
170 165 166 167 167 168 170 177 190 201 205 207 210 214 219 222 225 227 229 231 233 236 240 244 249 252 256 261 266 270 276 280 283 287 289 292 296 300 304 308 312 315 321 327 331 334 337 340 343 346 347 346 346 349 350 346 332 311 280 245 244 258 286 61 74 120 132 108 63 59 53 40 35 33 32 33 42 52 60 66 71 74 78 82 88
183 179 181 181 180 180 183 188 197 205 210 213 214 217 222 227 231 233 235 237 239 241 244 248 252 255 259 264 267 271 276 280 283 287 290 292 295 299 302 306 310 312 317 325 330 333 336 339 342 345 347 347 346 348 350 349 339 318 281 238 234 238 230 205 196 183 163 116 18 30 37 36 36 38 39 42 51 61 67 70 72 76 80 84 90
200 198 200 202 204 208 215 221 223 223 223 223 221 222 225 229 232 236 239 241 243 246 249 252 255 259 262 266 269 272 276 280 283 287 290 292 294 297 300 303 306 309 314 321 328 331 334 337 341 344 347 348 346 346 349 351 345 326 292 248 234 234 235 231 229 230 227 217 261 342 11 26 33 34 37 46 55 63 72 75 75 78 83 83 85